Location: 22
(39.7117°N, 89.5929°W)
Time: 09:41:18
(UTC-05:00)

Vanguard 2 Rocket - Visible Passes

Search period start: 17 July 2024 00:00
Search period end: 27 July 2024 00:00
Orbit: 555 x 3303 km, 32.9° (Epoch: 16 July)

Date Brightness Start Highest point End Pass type
(mag) Time Alt. Az. Time Alt. Az. Time Alt. Az.
17 Jul 9.3 02:10:09 10° W 02:21:44 38° SSW 02:38:18 10° SSE visible
17 Jul 10.2 04:28:25 10° WSW 04:37:28 17° SW 04:47:43 10° S visible
17 Jul 7.8 20:43:29 10° SW 20:49:12 45° SSE 20:58:52 10° E visible
17 Jul 8.2 22:54:45 10° W 23:02:41 59° S 23:12:56 20° ESE visible
18 Jul 9.0 01:07:16 10° W 01:17:38 45° SSW 01:33:55 10° SE visible
18 Jul 10.0 03:22:44 10° W 03:36:17 22° SSW 03:46:32 10° S visible
18 Jul 7.9 21:52:54 10° WSW 21:59:34 57° S 22:11:13 11° ESE visible
19 Jul 8.6 00:04:50 10° W 00:13:50 50° SSW 00:16:34 45° SSE visible
19 Jul 9.8 02:18:41 10° W 02:40:40 15° SSE 02:43:42 10° SSE visible
19 Jul 7.7 20:51:14 10° WSW 20:56:50 50° SSE 21:06:23 10° E visible
19 Jul 8.2 23:02:42 10° W 23:10:23 53° S 23:15:48 34° SE visible
20 Jul 9.3 01:15:31 10° W 01:44:01 - SE 01:21:12 30° SW visible
20 Jul 7.9 22:00:48 10° WSW 22:07:17 54° S 22:15:24 19° ESE visible
21 Jul 8.7 00:12:55 10° W 00:20:50 41° SSW 00:20:50 41° SSW visible
21 Jul10.202:52:30SSE02:52:30SSE02:26:16Wvisible
21 Jul 7.6 20:59:03 10° WSW 21:04:31 51° S 21:13:49 10° ESE visible
21 Jul 8.3 23:10:42 10° W 23:18:03 45° SSW 23:20:40 40° SSE visible
22 Jul 9.7 01:24:06 10° WSW 01:26:07 16° WSW 01:26:07 16° WSW visible
22 Jul 7.9 22:08:44 10° W 22:14:59 48° S 22:20:40 25° SE visible
23 Jul 9.1 00:21:12 10° W 00:26:07 28° SW 00:26:07 28° SW visible
23 Jul 7.6 21:06:55 10° WSW 21:12:13 48° S 21:20:45 11° ESE visible
23 Jul 8.6 23:18:48 10° W 23:25:44 36° SSW 23:26:14 36° S visible
24 Jul 8.1 22:16:43 10° WSW 22:22:41 40° S 22:26:26 29° SSE visible
25 Jul 9.5 00:29:55 10° WSW 00:31:54 16° WSW 00:31:54 16° WSW visible
25 Jul 7.7 21:14:50 10° WSW 21:19:56 42° S 21:26:42 15° ESE visible
25 Jul 8.9 23:27:09 10° WSW 23:32:10 26° SSW 23:32:10 26° SSW visible
26 Jul 8.4 22:24:52 10° WSW 22:30:24 30° SSW 22:32:31 27° S visible
